Location: Dürabuch
(48.2640°N, 11.2185°E)
Time: 13:24:56
(UTC+00:00)

MSX - Pass Details

Date: 23 May 2024
Orbit: 895 x 904 km, 99.0° (Epoch: 28 April)

Event Time Altitude Azimuth Distance (km) Brightness Sun altitude
Rises 02:05:29 0° 9° (N) 3,528 8.0 -10.9°
Reaches altitude 10° 02:08:01 10° 3° (N) 2,582 7.0 -10.6°
Maximum altitude 02:13:20 41° 295° (WNW) 1,287 4.5 -10.1°
Enters shadow 02:18:17 12° 229° (SW) 2,439 5.4 -9.5°
